OPS 4682 DEB, 19964

Orbit data source: Space-Track

OPS 4682 DEB, 19964 is space debris in LEO originally from a launch on Sat, 03 Apr 1965 UTC launched from the Air Force Western Test Range (AFWTR). Debris objects in space refer to the collection of defunct objects orbiting the Earth. Examples of debris include non-operational satellites, rocket bodies, and fragments generated from explosions, collisions, or faulty payload assembly.

Loading next visibility...
Identifier
19964, 1965-027BA
Orbit
LEO
Country
Flag of USUS
Related business
Manufacturer
Unknown
Mission
Spacecraft
Bus & Motor
Unknown
Mass
Unknown
Launch date (UTC)
1965-04-03 (61 years ago)
Launch vehicle
Unknown
Launch site
Air Force Western Test Range (AFWTR)
Object type
Payload
Rocket body
Debris
Shape & HBR
Unknown shape, 0.1 m
Radar Cross Section
Medium (>0.1 m² and <1 m²)

Expand to show TLE details & history
Last TLE update: 3 days ago

TLE from 3 days ago
0 OPS 4682 DEB
1 19964U 65027BA  26172.05298524  .00000727  00000-0  24933-2 0  9991
2 19964  90.2605  17.2014 0018478 161.1442 352.3865 12.97052101552568
Epoch: 2026-06-21T01:16Z
TLE epoch observation values (Epoch: 2026-06-21T01:16:17.924Z)
Latitude
26.52914°
Longitude
-91.00267°
Altitude
1,262.868 km
Speed
7.233 km/s
True Right ascension
13h 09m 19s
True Declination
26° 24' 04"
Sunlit
Object was in daylight at epoch
Visualization orbit readout
Latitude
Unknown
Longitude
Unknown
Altitude
Unknown
Speed
Unknown
Apparent Right ascension
Unknown
Apparent Declination
Unknown
Sunlit
N/A
Visualization observer readout
Local Sidereal Time
00:17:13
Azimuth
Unknown
Elevation
Unknown
Doppler factor
Unknown
Orbital elements
Apogee altitude
1,284.924 km
Perigee altitude
1,256.656 km
Semi-major axis
7,648.927 km
Eccentricity
0.00185
Inclination
90.2605°
RAAN
17.2014°
Arg. of periapsis
161.1442°
True anomaly
352.35838°
Mean anomaly
352.3865°
Eccentric anomaly
352.37245°
Mean motion
3.24446 °/min
Orbital period
110.96 mins
BSTAR
0.0024933
Loading maneuver chart data...
Computing Atmospheric mass density...
Loading historical data...
Loading historical data...
Loading historical data...
Loading historical data...
Loading historical data...
Loading historical data...
Loading historical data...

Documentation

Showing up to 5 results
|